Location: ??????
(56.0120°N, 39.1740°E)
Time: 19:07:51
(UTC+00:00)

NOSS 0 Rocket - Pass Details

Date: 14 April 2026
Orbit: 935 x 953 km, 70.0° (Epoch: 19 May)

Event Time Altitude Azimuth Distance (km) Brightness Sun altitude
Rises 18:35:46 0° 211° (SSW) 3,619 6.8 -15.7°
Reaches altitude 10° 18:38:17 10° 211° (SSW) 2,676 6.1 -16.0°
Maximum altitude 18:44:31 84° 125° (SE) 965 3.9 -16.6°
Drops below altitude 10° 18:50:47 10° 38° (NE) 2,685 6.5 -17.1°
Sets 18:53:19 0° 38° (NE) 3,632 7.2 -17.4°
